TimeEDT,TemperatureF,Dew PointF,Humidity,Sea Level PressureIn,VisibilityMPH,Wind Direction,Wind SpeedMPH,Gust SpeedMPH,PrecipitationIn,Events,Conditions,WindDirDegrees,DateUTC
12:53 AM,24.1,24.1,100,30.20,10.0,ENE,9.2,-,N/A,,Clear,70,2013-03-18 04:53:00
1:53 AM,25.0,25.0,100,30.18,10.0,East,8.1,-,N/A,,Clear,80,2013-03-18 05:53:00
2:53 AM,25.0,17.8,74,30.17,10.0,East,10.4,-,N/A,,Clear,90,2013-03-18 06:53:00
3:53 AM,27.0,21.2,79,30.12,10.0,ESE,12.7,18.4,N/A,,Clear,110,2013-03-18 07:53:00
4:53 AM,28.0,23.0,81,30.08,10.0,ESE,16.1,24.2,N/A,,Clear,110,2013-03-18 08:53:00
5:53 AM,28.9,28.9,100,30.04,10.0,East,13.8,24.2,N/A,,Clear,80,2013-03-18 09:53:00
6:53 AM,28.9,23.0,78,30.02,10.0,East,17.3,27.6,N/A,,Clear,80,2013-03-18 10:53:00
7:53 AM,30.0,30.0,100,29.99,10.0,East,16.1,21.9,N/A,,Clear,80,2013-03-18 11:53:00
8:53 AM,30.9,30.9,100,29.96,10.0,East,15.0,25.3,N/A,,Overcast,90,2013-03-18 12:53:00
9:09 AM,30.2,28.4,93,29.93,10.0,East,13.8,25.3,N/A,,Overcast,90,2013-03-18 13:09:00
9:53 AM,30.9,24.1,76,29.92,10.0,East,16.1,-,N/A,,Overcast,90,2013-03-18 13:53:00
10:53 AM,32.0,25.0,75,29.88,10.0,East,23.0,28.8,0.00,,Overcast,90,2013-03-18 14:53:00
11:53 AM,30.9,26.1,82,29.84,9.0,East,19.6,27.6,0.00,,Overcast,100,2013-03-18 15:53:00
12:25 PM,30.2,26.6,86,29.80,9.0,East,16.1,31.1,N/A,,Overcast,100,2013-03-18 16:25:00
12:53 PM,30.9,28.0,89,29.81,8.0,East,19.6,24.2,N/A,,Overcast,100,2013-03-18 16:53:00
1:10 PM,30.2,28.4,93,29.78,4.0,ESE,19.6,26.5,0.00,Rain,Light Freezing Rain,110,2013-03-18 17:10:00
1:38 PM,32.0,28.4,87,29.76,2.0,East,13.8,26.5,0.00,Rain,Light Freezing Rain,100,2013-03-18 17:38:00
1:53 PM,32.0,30.0,92,29.77,2.0,East,16.1,25.3,0.00,Rain,Light Freezing Rain,100,2013-03-18 17:53:00
2:17 PM,32.0,30.2,93,29.73,2.0,ESE,19.6,25.3,0.00,,Overcast,110,2013-03-18 18:17:00
2:36 PM,32.0,30.2,93,29.71,1.8,ESE,16.1,28.8,0.00,,Overcast,110,2013-03-18 18:36:00
2:53 PM,32.0,30.9,96,29.72,2.0,ESE,16.1,25.3,0.00,,Overcast,110,2013-03-18 18:53:00
3:04 PM,32.0,-9999,N/A,29.68,4.0,ESE,17.3,25.3,N/A,,Haze,110,2013-03-18 19:04:00
3:33 PM,33.8,-9999,N/A,29.65,2.5,ESE,17.3,24.2,N/A,,Overcast,110,2013-03-18 19:33:00
3:53 PM,33.1,-9999,N/A,29.66,2.5,ESE,19.6,25.3,0.01,Rain,Light Rain,110,2013-03-18 19:53:00
4:05 PM,33.8,-9999,N/A,29.63,3.0,ESE,16.1,-,0.00,Rain,Light Rain,110,2013-03-18 20:05:00
4:28 PM,33.8,-9999,N/A,29.62,2.5,ESE,17.3,24.2,0.00,,Overcast,110,2013-03-18 20:28:00
4:53 PM,33.1,-9999,N/A,29.65,3.0,ESE,13.8,23.0,0.00,,Overcast,120,2013-03-18 20:53:00
5:16 PM,33.8,-9999,N/A,29.60,1.8,ESE,15.0,21.9,0.00,Rain,Light Rain,110,2013-03-18 21:16:00
5:36 PM,33.8,-9999,N/A,29.59,2.0,ESE,11.5,-,0.01,Rain,Light Rain,110,2013-03-18 21:36:00
5:53 PM,33.1,-9999,N/A,29.59,2.5,ESE,16.1,-,0.01,,Overcast,110,2013-03-18 21:53:00
6:16 PM,33.8,-9999,N/A,29.56,4.0,ESE,11.5,-,0.00,,Haze,120,2013-03-18 22:16:00
6:44 PM,33.8,-9999,N/A,29.57,1.8,SE,9.2,-,0.00,Rain,Light Rain,130,2013-03-18 22:44:00
6:53 PM,34.0,-9999,N/A,29.59,1.8,ESE,8.1,-,0.01,Rain,Light Rain,120,2013-03-18 22:53:00
7:04 PM,33.8,-9999,N/A,29.56,2.0,ESE,5.8,-,0.00,Rain,Light Rain,120,2013-03-18 23:04:00
7:12 PM,33.8,-9999,N/A,29.56,1.8,SE,4.6,-,0.00,Rain,Light Rain,130,2013-03-18 23:12:00
7:22 PM,33.8,-9999,N/A,29.55,2.5,ESE,6.9,-,0.00,,Overcast,120,2013-03-18 23:22:00
7:39 PM,33.8,-9999,N/A,29.54,3.0,SE,5.8,-,0.00,Rain,Light Rain,140,2013-03-18 23:39:00
7:53 PM,35.1,-9999,N/A,29.57,5.0,South,5.8,-,0.01,Rain,Light Rain,180,2013-03-18 23:53:00
8:53 PM,35.1,-9999,N/A,29.57,4.0,SW,6.9,-,0.00,,Haze,230,2013-03-19 00:53:00
9:19 PM,35.6,-9999,N/A,29.57,7.0,WSW,10.4,16.1,0.00,Rain,Light Rain,240,2013-03-19 01:19:00
9:53 PM,36.0,-9999,N/A,29.60,10.0,WSW,15.0,-,0.00,,Overcast,250,2013-03-19 01:53:00
10:02 PM,35.6,-9999,N/A,29.59,10.0,WSW,12.7,20.7,N/A,,Overcast,250,2013-03-19 02:02:00
10:53 PM,36.0,-9999,N/A,29.62,10.0,WSW,16.1,23.0,N/A,,Overcast,250,2013-03-19 02:53:00
11:12 PM,35.6,33.8,93,29.60,10.0,WSW,15.0,-,N/A,,Overcast,250,2013-03-19 03:12:00
11:53 PM,36.0,33.8,92,29.63,10.0,West,16.1,23.0,N/A,,Overcast,260,2013-03-19 03:53:00